Time,TemperatureF,DewpointF,PressureIn,WindDirection,WindDirectionDegrees,WindSpeedMPH,WindSpeedGustMPH,Humidity,HourlyPrecipIn,Conditions,Clouds,dailyrainin,SolarRadiationWatts/m^2,SoftwareType,DateUTC
2013-04-02 00:05:00,47.6,31.0,30.24,North,5,13.0,16.0,53,0.00,,,0.00,0,weatherlink.com 1.10,2013-04-02 06:05:00,
2013-04-02 00:20:00,47.0,31.0,30.25,NNE,28,7.0,16.0,54,0.00,,,0.00,0,weatherlink.com 1.10,2013-04-02 06:20:00,
2013-04-02 00:35:00,46.7,31.0,30.26,NE,46,8.0,14.0,55,0.00,,,0.00,0,weatherlink.com 1.10,2013-04-02 06:35:00,
2013-04-02 00:50:00,46.5,31.0,30.26,NE,48,10.0,13.0,55,0.00,,,0.00,0,weatherlink.com 1.10,2013-04-02 06:50:00,
2013-04-02 01:05:00,46.5,30.0,30.27,NNE,26,9.0,13.0,54,0.00,,,0.00,0,weatherlink.com 1.10,2013-04-02 07:05:00,
2013-04-02 01:20:00,45.5,30.0,30.28,NNE,15,8.0,10.0,56,0.00,,,0.00,0,weatherlink.com 1.10,2013-04-02 07:20:00,
2013-04-02 01:35:00,45.7,31.0,30.28,NNE,13,7.0,9.0,56,0.00,,,0.00,0,weatherlink.com 1.10,2013-04-02 07:35:00,
2013-04-02 01:50:00,45.9,30.0,30.28,NNE,27,5.0,9.0,55,0.00,,,0.00,0,weatherlink.com 1.10,2013-04-02 07:50:00,
2013-04-02 02:05:00,46.9,31.0,30.29,North,360,4.0,8.0,54,0.00,,,0.00,0,weatherlink.com 1.10,2013-04-02 08:05:00,
2013-04-02 02:21:00,45.2,30.0,30.30,North,360,4.0,7.0,56,0.00,,,0.00,0,weatherlink.com 1.10,2013-04-02 08:21:00,
2013-04-02 02:36:00,45.5,30.0,30.30,North,5,5.0,7.0,56,0.00,,,0.00,0,weatherlink.com 1.10,2013-04-02 08:36:00,
2013-04-02 02:51:00,45.4,30.0,30.30,NNE,30,5.0,8.0,56,0.00,,,0.00,0,weatherlink.com 1.10,2013-04-02 08:51:00,
2013-04-02 03:06:00,45.5,30.0,30.30,NE,46,4.0,7.0,56,0.00,,,0.00,0,weatherlink.com 1.10,2013-04-02 09:06:00,
2013-04-02 03:21:00,44.6,30.0,30.31,NE,40,0.0,3.0,58,0.00,,,0.00,0,weatherlink.com 1.10,2013-04-02 09:21:00,
2013-04-02 03:36:00,42.5,30.0,30.31,ENE,78,0.0,3.0,62,0.00,,,0.00,0,weatherlink.com 1.10,2013-04-02 09:36:00,
2013-04-02 03:51:00,42.3,30.0,30.31,ENE,78,0.0,1.0,63,0.00,,,0.00,0,weatherlink.com 1.10,2013-04-02 09:51:00,
2013-04-02 04:36:00,41.2,30.0,30.32,ENE,78,0.0,2.0,65,0.00,,,0.00,0,weatherlink.com 1.10,2013-04-02 10:36:00,
2013-04-02 05:06:00,41.1,30.0,30.32,ENE,78,0.0,1.0,65,0.00,,,0.00,0,weatherlink.com 1.10,2013-04-02 11:06:00,
2013-04-02 05:21:00,41.0,30.0,30.32,ENE,57,1.0,3.0,66,0.00,,,0.00,0,weatherlink.com 1.10,2013-04-02 11:21:00,
2013-04-02 05:36:00,40.9,30.0,30.33,ENE,69,0.0,3.0,66,0.00,,,0.00,0,weatherlink.com 1.10,2013-04-02 11:36:00,
2013-04-02 05:51:00,39.7,30.0,30.33,ENE,69,0.0,1.0,68,0.00,,,0.00,0,weatherlink.com 1.10,2013-04-02 11:51:00,
2013-04-02 06:06:00,39.1,30.0,30.34,East,81,1.0,3.0,70,0.00,,,0.00,0,weatherlink.com 1.10,2013-04-02 12:06:00,
2013-04-02 06:21:00,39.0,30.0,30.34,SSE,159,1.0,2.0,71,0.00,,,0.00,0,weatherlink.com 1.10,2013-04-02 12:21:00,
2013-04-02 06:36:00,37.3,30.0,30.34,South,180,0.0,2.0,74,0.00,,,0.00,0,weatherlink.com 1.10,2013-04-02 12:36:00,
2013-04-02 06:51:00,37.4,30.0,30.34,South,180,0.0,2.0,74,0.00,,,0.00,0,weatherlink.com 1.10,2013-04-02 12:51:00,
2013-04-02 07:06:00,36.5,30.0,30.35,South,180,0.0,1.0,76,0.00,,,0.00,0,weatherlink.com 1.10,2013-04-02 13:06:00,
2013-04-02 07:21:00,37.3,30.0,30.34,ESE,108,1.0,2.0,75,0.00,,,0.00,9,weatherlink.com 1.10,2013-04-02 13:21:00,
2013-04-02 07:36:00,38.4,30.0,30.35,ESE,108,0.0,2.0,73,0.00,,,0.00,14,weatherlink.com 1.10,2013-04-02 13:36:00,
2013-04-02 07:51:00,38.5,30.0,30.35,ESE,108,0.0,1.0,72,0.00,,,0.00,21,weatherlink.com 1.10,2013-04-02 13:51:00,
2013-04-02 08:06:00,38.1,30.0,30.36,NE,50,0.0,2.0,73,0.00,,,0.00,88,weatherlink.com 1.10,2013-04-02 14:06:00,
2013-04-02 08:21:00,38.2,30.0,30.36,NE,50,0.0,2.0,73,0.00,,,0.00,135,weatherlink.com 1.10,2013-04-02 14:21:00,
2013-04-02 08:37:00,39.2,31.0,30.36,NE,50,0.0,0.0,72,0.00,,,0.00,193,weatherlink.com 1.10,2013-04-02 14:37:00,
2013-04-02 08:52:00,38.6,31.0,30.37,NNW,333,1.0,4.0,75,0.00,,,0.00,248,weatherlink.com 1.10,2013-04-02 14:52:00,
2013-04-02 09:07:00,38.5,32.0,30.37,NE,44,2.0,3.0,77,0.00,,,0.00,290,weatherlink.com 1.10,2013-04-02 15:07:00,
2013-04-02 09:22:00,38.6,31.0,30.37,NNE,24,2.0,4.0,75,0.00,,,0.00,338,weatherlink.com 1.10,2013-04-02 15:22:00,
2013-04-02 09:37:00,40.6,33.0,30.36,NNE,23,2.0,3.0,73,0.00,,,0.00,378,weatherlink.com 1.10,2013-04-02 15:37:00,
2013-04-02 09:52:00,41.7,33.0,30.36,North,5,0.0,4.0,71,0.00,,,0.00,457,weatherlink.com 1.10,2013-04-02 15:52:00,
2013-04-02 10:07:00,43.1,34.0,30.36,NW,326,4.0,4.0,70,0.00,,,0.00,529,weatherlink.com 1.10,2013-04-02 16:07:00,
2013-04-02 10:22:00,42.4,33.0,30.36,East,85,5.0,5.0,70,0.00,,,0.00,155,weatherlink.com 1.10,2013-04-02 16:22:00,
2013-04-02 10:37:00,44.4,34.0,30.35,SSW,206,1.0,4.0,68,0.00,,,0.00,566,weatherlink.com 1.10,2013-04-02 16:37:00,
2013-04-02 10:52:00,46.3,34.0,30.35,SW,222,6.0,7.0,63,0.00,,,0.00,591,weatherlink.com 1.10,2013-04-02 16:52:00,
2013-04-02 11:07:00,47.3,34.0,30.35,SW,235,4.0,5.0,60,0.00,,,0.00,621,weatherlink.com 1.10,2013-04-02 17:07:00,
2013-04-02 11:22:00,49.2,34.0,30.34,SW,235,2.0,6.0,56,0.00,,,0.00,668,weatherlink.com 1.10,2013-04-02 17:22:00,
2013-04-02 11:37:00,50.1,34.0,30.34,SSW,206,7.0,10.0,55,0.00,,,0.00,707,weatherlink.com 1.10,2013-04-02 17:37:00,
2013-04-02 11:52:00,51.9,34.0,30.34,South,191,6.0,11.0,51,0.00,,,0.00,868,weatherlink.com 1.10,2013-04-02 17:52:00,
2013-04-02 12:07:00,52.8,35.0,30.33,SW,218,8.0,11.0,51,0.00,,,0.00,895,weatherlink.com 1.10,2013-04-02 18:07:00,
2013-04-02 12:37:00,54.8,36.0,30.32,SSW,209,6.0,8.0,49,0.00,,,0.00,251,weatherlink.com 1.10,2013-04-02 18:37:00,
2013-04-02 12:52:00,56.6,36.0,30.31,South,173,1.0,12.0,47,0.00,,,0.00,824,weatherlink.com 1.10,2013-04-02 18:52:00,
2013-04-02 13:07:00,57.7,37.0,30.30,SW,221,7.0,13.0,46,0.00,,,0.00,904,weatherlink.com 1.10,2013-04-02 19:07:00,
2013-04-02 13:38:00,60.3,37.0,30.28,NNE,31,3.0,8.0,42,0.00,,,0.00,904,weatherlink.com 1.10,2013-04-02 19:38:00,
2013-04-02 13:53:00,60.0,37.0,30.28,NNE,22,9.0,12.0,43,0.00,,,0.00,1039,weatherlink.com 1.10,2013-04-02 19:53:00,
2013-04-02 14:08:00,60.0,37.0,30.27,North,5,5.0,16.0,43,0.00,,,0.00,953,weatherlink.com 1.10,2013-04-02 20:08:00,
2013-04-02 14:23:00,60.5,36.0,30.27,NNW,333,1.0,3.0,41,0.00,,,0.00,926,weatherlink.com 1.10,2013-04-02 20:23:00,
2013-04-02 14:38:00,60.9,36.0,30.27,North,5,7.0,10.0,39,0.00,,,0.00,954,weatherlink.com 1.10,2013-04-02 20:38:00,
2013-04-02 14:53:00,61.6,36.0,30.26,WNW,302,5.0,9.0,38,0.00,,,0.00,798,weatherlink.com 1.10,2013-04-02 20:53:00,
2013-04-02 15:23:00,62.7,35.0,30.25,South,174,0.0,7.0,36,0.00,,,0.00,782,weatherlink.com 1.10,2013-04-02 21:23:00,
2013-04-02 15:38:00,62.5,35.0,30.24,NW,311,6.0,13.0,36,0.00,,,0.00,765,weatherlink.com 1.10,2013-04-02 21:38:00,
2013-04-02 15:53:00,62.7,35.0,30.24,NNW,332,2.0,10.0,35,0.00,,,0.00,728,weatherlink.com 1.10,2013-04-02 21:53:00,
2013-04-02 16:08:00,62.4,35.0,30.24,North,5,18.0,22.0,36,0.00,,,0.00,153,weatherlink.com 1.10,2013-04-02 22:08:00,
2013-04-02 16:23:00,61.7,34.0,30.24,North,360,9.0,16.0,35,0.00,,,0.00,162,weatherlink.com 1.10,2013-04-02 22:23:00,
2013-04-02 16:38:00,61.7,34.0,30.23,North,355,15.0,17.0,35,0.00,,,0.00,185,weatherlink.com 1.10,2013-04-02 22:38:00,
2013-04-02 17:08:00,62.3,33.0,30.23,NW,318,13.0,21.0,34,0.00,,,0.00,571,weatherlink.com 1.10,2013-04-02 23:08:00,
2013-04-02 17:23:00,62.8,34.0,30.23,WNW,302,15.0,19.0,34,0.00,,,0.00,476,weatherlink.com 1.10,2013-04-02 23:23:00,
2013-04-02 17:38:00,61.7,33.0,30.23,NW,316,15.0,21.0,34,0.00,,,0.00,410,weatherlink.com 1.10,2013-04-02 23:38:00,
2013-04-02 17:53:00,61.8,34.0,30.23,NNW,341,15.0,20.0,35,0.00,,,0.00,341,weatherlink.com 1.10,2013-04-02 23:53:00,
2013-04-02 18:08:00,61.6,33.0,30.24,NNW,335,13.0,20.0,34,0.00,,,0.00,334,weatherlink.com 1.10,2013-04-03 00:08:00,
2013-04-02 18:23:00,61.6,33.0,30.24,NW,320,12.0,23.0,34,0.00,,,0.00,301,weatherlink.com 1.10,2013-04-03 00:23:00,
2013-04-02 18:38:00,61.1,33.0,30.24,NW,323,15.0,22.0,35,0.00,,,0.00,229,weatherlink.com 1.10,2013-04-03 00:38:00,
2013-04-02 18:53:00,60.5,33.0,30.24,NW,325,19.0,26.0,36,0.00,,,0.00,167,weatherlink.com 1.10,2013-04-03 00:53:00,
2013-04-02 19:08:00,60.2,33.0,30.24,NNW,338,14.0,21.0,36,0.00,,,0.00,118,weatherlink.com 1.10,2013-04-03 01:08:00,
2013-04-02 19:23:00,59.3,33.0,30.24,NW,321,12.0,19.0,38,0.00,,,0.00,65,weatherlink.com 1.10,2013-04-03 01:23:00,
2013-04-02 19:38:00,58.2,33.0,30.24,NNW,334,15.0,19.0,39,0.00,,,0.00,32,weatherlink.com 1.10,2013-04-03 01:38:00,
2013-04-02 19:53:00,58.2,34.0,30.24,NNW,348,12.0,15.0,40,0.00,,,0.00,16,weatherlink.com 1.10,2013-04-03 01:53:00,
2013-04-02 20:08:00,58.2,34.0,30.25,North,5,10.0,15.0,40,0.00,,,0.00,0,weatherlink.com 1.10,2013-04-03 02:08:00,
2013-04-02 20:23:00,56.7,34.0,30.25,NNW,344,14.0,15.0,42,0.00,,,0.00,0,weatherlink.com 1.10,2013-04-03 02:23:00,
2013-04-02 20:38:00,56.4,34.0,30.25,North,360,10.0,14.0,43,0.00,,,0.00,0,weatherlink.com 1.10,2013-04-03 02:38:00,
2013-04-02 20:53:00,55.9,35.0,30.26,NNW,344,16.0,21.0,45,0.00,,,0.00,0,weatherlink.com 1.10,2013-04-03 02:53:00,
2013-04-02 21:08:00,56.1,35.0,30.26,NNW,339,19.0,24.0,45,0.00,,,0.00,0,weatherlink.com 1.10,2013-04-03 03:08:00,
2013-04-02 21:23:00,56.1,35.0,30.27,NNW,330,15.0,21.0,45,0.00,,,0.00,0,weatherlink.com 1.10,2013-04-03 03:23:00,
2013-04-02 21:38:00,56.0,35.0,30.28,North,5,10.0,17.0,45,0.00,,,0.00,0,weatherlink.com 1.10,2013-04-03 03:38:00,
2013-04-02 21:53:00,54.5,35.0,30.28,North,360,13.0,15.0,48,0.00,,,0.00,0,weatherlink.com 1.10,2013-04-03 03:53:00,
2013-04-02 22:08:00,54.3,35.0,30.29,North,5,11.0,17.0,49,0.00,,,0.00,0,weatherlink.com 1.10,2013-04-03 04:08:00,
2013-04-02 22:23:00,54.5,35.0,30.29,NNE,20,9.0,17.0,49,0.00,,,0.00,0,weatherlink.com 1.10,2013-04-03 04:23:00,
2013-04-02 22:38:00,54.3,35.0,30.29,NNE,24,9.0,19.0,48,0.00,,,0.00,0,weatherlink.com 1.10,2013-04-03 04:38:00,
2013-04-02 22:53:00,53.5,35.0,30.30,NNE,17,11.0,13.0,50,0.00,,,0.00,0,weatherlink.com 1.10,2013-04-03 04:53:00,
2013-04-02 23:08:00,53.7,35.0,30.30,NE,40,6.0,15.0,49,0.00,,,0.00,0,weatherlink.com 1.10,2013-04-03 05:08:00,
2013-04-02 23:23:00,52.8,35.0,30.30,NNE,14,9.0,13.0,51,0.00,,,0.00,0,weatherlink.com 1.10,2013-04-03 05:23:00,
2013-04-02 23:38:00,51.7,35.0,30.30,North,9,13.0,15.0,54,0.00,,,0.00,0,weatherlink.com 1.10,2013-04-03 05:38:00,
2013-04-02 23:53:00,51.0,35.0,30.30,NNE,24,11.0,13.0,55,0.00,,,0.00,0,weatherlink.com 1.10,2013-04-03 05:53:00,